Regional Weather Roundup
Issued by NWS

Home | Current Version | Previous Version | Text Only | Print | Product List | Glossary Off
Versions: 1 2 3 4 5 6 7 8 9 10 11 12 13 14 15 16 17 18 19 20 21 22 23 24 25 26 27 28 29 30 31 32 33 34 35 36 37 38 39 40 41 42 43 44 45 46 47 48 49 50

000
ASUS43 KBIS 231420
RWRND

NORTH DAKOTA REGIONAL WEATHER ROUNDUP
NATIONAL WEATHER SERVICE BISMARCK ND
900 AM CDT THU OCT 23 2014

NOTE: "FAIR" INDICATES FEW OR NO CLOUDS BELOW 12,000 FEET WITH NO
SIGNIFICANT WEATHER AND/OR OBSTRUCTIONS TO VISIBILITY.


NDZ001>003-009>011-017-231500-
NORTHWEST NORTH DAKOTA

CITY           SKY/WX    TMP DP  RH WIND       PRES   REMARKS
WILLISTON      CLEAR     34  31  88 SW3       29.84S
MINOT          CLEAR     44  34  67 S12       29.84R
MINOT AFB      CLEAR     40  34  81 SW5       29.83R
$$

NDZ018>021-031>035-040>046-231500-
SOUTHWEST NORTH DAKOTA

CITY           SKY/WX    TMP DP  RH WIND       PRES   REMARKS
BISMARCK       CLEAR     34  31  88 E3        29.92R
DICKINSON      CLEAR     40  29  64 SW7       29.87S
GARRISON         N/A     38  35  89 S3        29.86S
HETTINGER ARPT CLEAR     33  27  78 CALM      29.93S
$$

NDZ004>008-012>016-024-026-027-054-231500-
NORTHEAST NORTH DAKOTA

CITY           SKY/WX    TMP DP  RH WIND       PRES   REMARKS
GRAND FORKS    PTCLDY    43  40  89 SW6       29.86R
GRND FRKS AFB  CLEAR     48  42  81 SW10      29.86R
DEVILS LAKE    CLEAR     46  36  66 SW10      29.84S
$$

NDZ022-023-025-028>030-036>039-047>053-231500-
SOUTHEAST NORTH DAKOTA

CITY           SKY/WX    TMP DP  RH WIND       PRES   REMARKS
FARGO          CLEAR     44  40  85 S7        29.92R
JAMESTOWN      CLEAR     43  35  73 W7        29.91R
$$




USA.gov is the U.S. government's official web portal to all federal, state and local government web resources and services.